[[{"header":{"parameterUnit":"m.s-1","parameterCategory":1,"la1":30.2991,"la2":30.254,"lo1":-89.0895,"lo2":-89.0444,"dy":0.0017,"dx":0.0017,"nx":28,"ny":28,"refTime":"2024-07-25T21:00:00:Z","depth":0,"parameterNumber":2,"parameterNumberName":"U-component_of_WINDS"},"data":[0,0,0,0,0,0,0,0,0,0,0,0,0,0,0,0,0,0,0,0,0,0,0,0,0,0,0,0,0,0,0,0,0,0,0,0,0,0,0,0,0,0,0,0,0,0,0,0,0,0,0,0,0,0,0,0,0,0,-0.8891,-0.8891,0,-0.8828,-0.8828,-0.8827,-0.8744,-0.8743,-0.8741,-0.874,-0.8676,-0.8675,-0.8675,0,0,0,0,0,0,0,0,0,0,0,0,0,-0.894,-0.894,-0.8891,-0.8891,-0.889,-0.8828,-0.8828,-0.8827,-0.8744,-0.8743,-0.8741,-0.8739,-0.8676,-0.8675,-0.8675,0,0,0,0,0,0,0,0,0,0,0,0,0,-0.8902,-0.894,-0.8892,-0.8841,-0.8836,-0.8829,-0.8827,-0.8826,-0.8745,-0.8743,-0.8741,-0.8739,-0.8676,-0.8675,-0.8675,-0.8711,0,0,-0.8673,-0.8672,0,0,0,0,0,0,0,0,-0.8905,-0.8901,-0.8849,-0.8845,-0.8839,-0.8792,-0.8821,-0.8788,-0.8745,-0.8779,-0.874,-0.8738,-0.8716,-0.8712,-0.8705,-0.8708,-0.8706,-0.8673,-0.8672,-0.8672,-0.8672,0,0,0,0,0,0,0,-0.8907,-0.8903,-0.8866,-0.8849,-0.8842,-0.8822,-0.8814,-0.8814,-0.876,-0.8776,-0.877,-0.8764,-0.8713,-0.8705,-0.8702,-0.8705,-0.8673,-0.8672,-0.8672,-0.8671,-0.8734,-0.8736,0,0,0,0,0,0,-0.8918,-0.8906,-0.8868,-0.8864,-0.8867,-0.8823,-0.8814,-0.8809,-0.876,-0.875,-0.8766,-0.876,-0.8708,-0.8703,-0.87,-0.8739,-0.8672,-0.8671,-0.8671,-0.8732,-0.8735,-0.8737,0,0,0,0,0,0,-0.8919,-0.8915,-0.8871,-0.8883,-0.8876,-0.8824,-0.8819,-0.8809,-0.8801,-0.8752,-0.8741,-0.8768,-0.8706,-0.8701,-0.8709,-0.8736,-0.8671,-0.867,-0.873,-0.8733,-0.8736,-0.8818,0,0,0,0,0,0,-0.8921,-0.8916,-0.893,-0.8884,-0.8876,-0.8882,-0.8821,-0.8809,-0.8801,-0.8793,-0.8751,-0.8742,-0.8704,-0.871,-0.8708,-0.8733,-0.867,-0.8727,-0.8731,-0.8735,-0.8813,-0.8824,-0.8833,0,0,0,0,0,-0.8923,-0.8955,-0.8931,-0.8927,-0.8892,-0.8883,-0.8878,-0.8833,-0.8803,-0.8816,-0.8784,-0.8744,-0.8733,-0.8712,-0.8709,-0.8734,-0.8725,-0.873,-0.8735,-0.8808,-0.8822,-0.8833,0,0,0,0,0,0,-0.9005,-0.8949,-0.892,-0.894,-0.8917,-0.8869,-0.8884,-0.8849,-0.8834,-0.8828,-0.8772,-0.8763,-0.8778,-0.8757,-0.8734,-0.8767,-0.8723,-0.8727,-0.878,-0.8792,-0.8802,-0.8807,-0.8669,0,0,0,0,0,-0.9026,-0.9024,-0.8974,-0.8996,-0.8986,-0.8937,-0.8932,-0.8899,-0.8873,-0.8863,-0.8831,-0.8808,-0.8799,-0.8794,-0.8784,-0.8809,-0.8799,-0.8825,-0.8835,-0.8844,-0.8848,-0.8859,-0.887,-0.8752,-0.8752,-0.8752,0,0,-0.9068,-0.9037,-0.9039,-0.9012,-0.899,-0.8989,-0.893,-0.8931,-0.893,-0.8863,-0.8869,-0.8845,-0.8815,-0.8832,-0.8838,-0.8814,-0.8878,-0.885,-0.8857,-0.8856,-0.8865,-0.8877,-0.8887,-0.8755,-0.8755,-0.8754,0,0,-0.9145,-0.9121,-0.9136,-0.9116,-0.9084,-0.9051,-0.9055,-0.9012,-0.8994,-0.8998,-0.8948,-0.8946,-0.8932,-0.8912,-0.8901,-0.8969,-0.8931,-0.8967,-0.902,-0.9031,-0.9041,-0.9049,-0.9073,-0.9082,-0.8971,-0.8972,-0.8972,0,-0.9201,-0.9198,-0.9148,-0.9153,-0.9142,-0.9082,-0.9096,-0.9079,-0.9045,-0.9039,-0.9013,-0.8994,-0.897,-0.8981,-0.8998,-0.899,-0.8993,-0.8972,-0.9043,-0.9051,-0.9058,-0.908,-0.9089,-0.8976,-0.8976,-0.8975,-0.8975,0,-0.9269,-0.9267,-0.9283,-0.9252,-0.9243,-0.9252,-0.9204,-0.9201,-0.9169,-0.9139,-0.9144,-0.9113,-0.9094,-0.9094,-0.9063,-0.9101,-0.9087,-0.9054,-0.9009,-0.9074,-0.9094,-0.9102,-0.8983,-0.8981,-0.898,-0.8979,0,0,-0.9396,-0.9337,-0.9344,-0.9328,-0.9288,-0.9286,-0.9293,-0.9274,-0.9272,-0.9251,-0.9255,-0.9244,-0.9212,-0.9199,-0.9165,-0.9175,-0.9231,-0.914,-0.9138,-0.9158,-0.927,-0.9296,-0.9307,-0.9206,-0.9207,-0.9208,-0.9273,0,-0.9465,-0.9473,-0.9429,-0.9448,-0.9446,-0.9388,-0.9394,-0.937,-0.9342,-0.9335,-0.9304,-0.9297,-0.9256,-0.9248,-0.9255,-0.9223,-0.9253,-0.9217,-0.9209,-0.9209,-0.9218,-0.9317,-0.9345,-0.9407,-0.928,-0.9282,-0.9283,0,-0.9547,-0.9529,-0.9549,-0.9507,-0.9504,-0.951,-0.9489,-0.9484,-0.9456,-0.9434,-0.942,-0.938,-0.9383,-0.934,-0.9344,-0.9321,-0.9314,-0.9298,-0.9299,-0.9297,-0.925,-0.9317,-0.9426,-0.9435,-0.9294,-0.9293,-0.9293,0,-0.9637,-0.9619,-0.9628,-0.9617,-0.9568,-0.9574,-0.9554,-0.9523,-0.9515,-0.9497,-0.949,-0.9473,-0.9464,-0.9451,-0.9408,-0.938,-0.9416,-0.937,-0.9398,-0.9399,-0.9408,-0.9409,-0.9518,-0.9405,-0.9405,-0.9405,-0.9404,0,-0.9719,-0.9733,-0.9668,-0.9674,-0.9688,-0.9636,-0.9652,-0.9626,-0.9599,-0.9598,-0.9547,-0.9548,-0.949,-0.9484,-0.945,-0.9458,-0.9454,-0.9437,-0.9428,-0.9442,-0.9444,-0.9437,-0.9431,-0.9407,-0.9406,-0.9406,-0.9406,0,-0.9823,-0.978,-0.9786,-0.9739,-0.9728,-0.974,-0.97,-0.9703,-0.9672,-0.9672,-0.9669,-0.962,-0.961,-0.9565,-0.9545,-0.9522,-0.9541,-0.9523,-0.9551,-0.9545,-0.9576,-0.9574,-0.9685,-0.9696,-0.9577,-0.9578,-0.9579,0,-0.9878,-0.9887,-0.9842,-0.9837,-0.982,-0.9814,-0.9805,-0.9754,-0.9747,-0.9715,-0.9722,-0.9708,-0.9694,-0.9681,-0.9643,-0.9627,-0.9608,-0.9648,-0.9606,-0.9619,-0.9609,-0.9609,-0.9609,-0.9658,-0.9659,-0.966,-0.9661,0,-0.998,-0.9958,-0.9947,-0.9928,-0.9919,-0.9902,-0.9882,-0.9881,-0.9825,-0.982,-0.9809,-0.9798,-0.9777,-0.9764,-0.9741,-0.972,-0.9682,-0.9675,-0.9681,-0.9695,-0.9711,-0.9702,-0.9576,-0.9673,-0.9672,-0.9671,-0.967,-0.967,-1.0061,-1.0066,-1.0035,-1.0024,-1.0003,-0.9986,-0.9986,-0.9955,-0.9945,-0.9924,-0.9894,-0.9887,-0.9858,-0.9823,-0.9806,-0.9799,-0.9777,-0.9786,-0.9788,-0.9791,-0.9797,-0.9712,-0.9795,-0.9794,-0.9794,-0.9794,-0.9793,0,-1.016,-1.0136,-1.0127,-1.01,-1.0092,-1.0056,-1.0031,-1.0027,-1.0021,-0.9997,-0.9984,-0.9971,-0.9958,-0.9919,-0.9902,-0.9904,-0.9886,-0.9901,-0.9901,-0.9896,-0.9818,-0.9815,-0.9916,-0.9916,-0.9916,-0.9916,-0.9916,-0.9916,-1.021,-1.0218,-1.0192,-1.0188,-1.0164,-1.0157,-1.0146,-1.013,-1.011,-1.0098,-1.0087,-1.0061,-1.0031,-1.001,-0.9996,-0.9985,-0.9981,-1.0003,-0.9986,-0.9914,-0.9902,-0.9891,-0.9887,-1.0002,-1.0002,-1.0064,-1.0065,-1.0065]},{"header":{"parameterUnit":"m.s-1","parameterCategory":1,"la1":30.2991,"la2":30.254,"lo1":-89.0895,"lo2":-89.0444,"dy":0.0017,"dx":0.0017,"nx":28,"ny":28,"refTime":"2024-07-25T21:00:00:Z","depth":0,"parameterNumber":3,"parameterNumberName":"V-component_of_WINDS"},"data":[0,0,0,0,0,0,0,0,0,0,0,0,0,0,0,0,0,0,0,0,0,0,0,0,0,0,0,0,0,0,0,0,0,0,0,0,0,0,0,0,0,0,0,0,0,0,0,0,0,0,0,0,0,0,0,0,0,0,2.0053,2.0053,0,2.0063,2.0064,2.0064,2.0011,2.0009,2.0008,2.0006,2.0017,2.0018,2.002,0,0,0,0,0,0,0,0,0,0,0,0,0,1.9986,1.9988,2.0053,2.0053,2.0053,2.0063,2.0064,2.0064,2.0011,2.0009,2.0007,2.0006,2.0016,2.0018,2.002,0,0,0,0,0,0,0,0,0,0,0,0,0,2.0008,1.9988,2.0053,2.0028,2.0026,2.0063,2.0064,2.0064,2.0011,2.0009,2.0007,2.0005,2.0015,2.0018,2.002,2.0082,0,0,2.0028,2.0029,0,0,0,0,0,0,0,0,2.0007,2.001,2.0032,2.003,2.0028,2.0033,2.0044,2.007,2.0012,2.0017,2.0006,2.0004,2.0024,2.0026,2.0033,2.0082,2.0083,2.0028,2.003,2.0031,2.0032,0,0,0,0,0,0,0,2.0005,2.001,2.0057,2.0032,2.003,2.0016,2.0017,2.0048,2.0033,2.0016,2.0013,2.0015,2.0022,2.003,2.0032,2.0083,2.0028,2.003,2.0032,2.0033,2.0183,2.0185,0,0,0,0,0,0,2.0007,2.0009,2.0057,2.0057,2.0011,2.0019,2.002,2.0034,2.0033,2.003,2.0017,2.0012,2.0027,2.003,2.0033,2.0104,2.0031,2.0033,2.0035,2.018,2.0183,2.0186,0,0,0,0,0,0,2.0006,2.0012,2.0056,2.0032,2.0037,2.0023,2.0039,2.0035,2.0043,2.0033,2.003,2.0027,2.0025,2.0029,2.007,2.0104,2.0034,2.0037,2.0177,2.0181,2.0184,2.0248,0,0,0,0,0,0,2.0004,2.0012,2.0035,2.0033,2.0038,2.0094,2.0041,2.0037,2.0048,2.0042,2.0042,2.004,2.0024,2.0066,2.0072,2.0106,2.0039,2.0174,2.0179,2.0183,2.0243,2.0253,2.0263,0,0,0,0,0,2.0002,2.0053,2.0037,2.0043,2.0067,2.0096,2.0099,2.0079,2.0051,2.0074,2.0067,2.004,2.0099,2.0071,2.0077,2.0112,2.0172,2.0178,2.0183,2.0238,2.0251,2.0262,0,0,0,0,0,0,2.0059,2.0052,2.0034,2.0086,2.0092,2.0087,2.0116,2.0094,2.0108,2.0102,2.0077,2.0077,2.0122,2.0121,2.009,2.0171,2.013,2.0138,2.0171,2.0183,2.0192,2.0192,2.0041,0,0,0,0,0,2.0078,2.0102,2.0094,2.014,2.0144,2.013,2.0141,2.0126,2.0131,2.0133,2.0129,2.0136,2.0155,2.0169,2.0187,2.0242,2.0241,2.0269,2.0279,2.0287,2.0294,2.0323,2.0335,2.0204,2.0204,2.0204,0,0,2.0117,2.0116,2.0132,2.0152,2.0155,2.018,2.0132,2.0161,2.0179,2.0138,2.0176,2.0173,2.0178,2.0227,2.0248,2.0227,2.033,2.0294,2.0301,2.0303,2.033,2.0342,2.0354,2.0208,2.0207,2.0206,0,0,2.02,2.0202,2.024,2.0244,2.0249,2.0239,2.0248,2.0247,2.0244,2.0282,2.0251,2.0272,2.0307,2.0312,2.0319,2.0404,2.0379,2.041,2.0461,2.049,2.05,2.0509,2.054,2.0551,2.0416,2.0416,2.0417,0,2.0248,2.0285,2.0263,2.0294,2.0303,2.0267,2.0305,2.031,2.032,2.0328,2.0304,2.0347,2.0348,2.0397,2.0417,2.0424,2.0434,2.041,2.0501,2.051,2.0518,2.0546,2.0558,2.042,2.042,2.0419,2.0419,0,2.0343,2.0369,2.0399,2.041,2.0423,2.0458,2.0441,2.0456,2.044,2.0432,2.0471,2.0471,2.0487,2.0498,2.0482,2.0545,2.0532,2.0505,2.0463,2.0534,2.0561,2.0572,2.0426,2.0424,2.0423,2.0422,0,0,2.0463,2.0461,2.0473,2.0477,2.048,2.05,2.0532,2.0549,2.0563,2.0571,2.0598,2.0628,2.0603,2.0611,2.0595,2.0621,2.0688,2.0591,2.059,2.0609,2.0757,2.0777,2.079,2.0671,2.0673,2.0675,2.0756,0,2.0544,2.06,2.0582,2.0638,2.0662,2.0628,2.0656,2.0661,2.0654,2.0673,2.0666,2.0688,2.0653,2.0658,2.0681,2.0675,2.0717,2.0669,2.0696,2.0697,2.0696,2.0804,2.0825,2.0902,2.0767,2.0768,2.077,0,2.0647,2.066,2.0719,2.0717,2.0727,2.0753,2.0766,2.0785,2.0789,2.0783,2.0792,2.077,2.0802,2.0761,2.0804,2.0771,2.0781,2.078,2.0782,2.0784,2.0738,2.0809,2.0926,2.0938,2.0786,2.0784,2.0783,0,2.0728,2.076,2.08,2.0805,2.0804,2.0823,2.0824,2.0826,2.0837,2.0849,2.0855,2.0871,2.0879,2.0892,2.0875,2.0846,2.0921,2.0878,2.0916,2.0917,2.0933,2.0932,2.1054,2.094,2.094,2.0939,2.0939,0,2.0821,2.0859,2.0836,2.0861,2.0902,2.088,2.0921,2.0917,2.092,2.0943,2.0914,2.0936,2.0912,2.0932,2.0919,2.0957,2.0961,2.0956,2.0952,2.0959,2.096,2.0965,2.096,2.0942,2.0942,2.0941,2.0941,0,2.092,2.0906,2.0947,2.0943,2.0942,2.0973,2.0969,2.0991,2.0983,2.1012,2.1018,2.1004,2.1026,2.101,2.1032,2.1023,2.1073,2.1062,2.1072,2.1069,2.1108,2.1105,2.1238,2.1254,2.1129,2.113,2.1131,0,2.098,2.1008,2.1007,2.102,2.1023,2.1045,2.1056,2.1035,2.1048,2.1055,2.1076,2.1096,2.111,2.1146,2.1138,2.1155,2.1144,2.1189,2.1146,2.1152,2.1144,2.1143,2.1146,2.1198,2.1199,2.1201,2.1202,0,2.1089,2.108,2.1098,2.1113,2.1127,2.1138,2.1146,2.1159,2.1138,2.1153,2.1175,2.1187,2.1209,2.1228,2.1242,2.1242,2.1219,2.1215,2.1225,2.1232,2.1237,2.1235,2.1096,2.1212,2.1211,2.121,2.121,2.1209,2.117,2.1193,2.1196,2.1216,2.122,2.1229,2.1249,2.1243,2.1261,2.1278,2.1264,2.1291,2.1294,2.131,2.1313,2.1333,2.1314,2.1328,2.1332,2.1336,2.1341,2.1234,2.1335,2.1335,2.1335,2.1334,2.1334,0,2.1277,2.1277,2.1296,2.1308,2.1324,2.1301,2.1309,2.1324,2.1347,2.1352,2.1367,2.1392,2.1411,2.1405,2.1421,2.1439,2.1428,2.1444,2.1442,2.1443,2.1357,2.1347,2.1452,2.1452,2.1452,2.1452,2.1452,2.1452,2.1334,2.1373,2.1365,2.1405,2.1404,2.143,2.1437,2.1444,2.1448,2.1478,2.1493,2.1489,2.1489,2.1506,2.1522,2.1519,2.1527,2.1546,2.154,2.146,2.1449,2.1438,2.1428,2.1548,2.1548,2.1624,2.1624,2.1625]}]]